Location: Nashville
(36.1660°N, 86.7840°W)
Time: 04:53:48
(UTC-05:00)

AO-92 - Pass Details

Date: 24 May 2022
Orbit: 472 x 481 km, 97.4° (Epoch: 26 June)

Event Time Altitude Azimuth Distance (km) Brightness Sun altitude
Exits shadow 23:49:38 11° 304° (NW) 1,577 ? -31.5°
Drops below altitude 10° 23:49:54 10° 308° (NW) 1,646 ? -31.5°
Sets 23:52:31 0° 329° (NNW) 2,527 ? -31.6°
